| time (UTC) | temp C | wind direction | speed KPH | gust KPH | rain 1hr cm | rain 24hr cm | rain mn cm | humidity % | barometer mb |
| 20260904163027 | 18 | 207 | 0.0 | 19.3 | 0.00 | 0.00 | 0.00 | 79 | 1012.8 |
| 20260904161526 | 20 | 221 | 0.0 | 24.1 | 0.00 | 0.00 | 0.00 | 78 | 1012.5 |
| 20260904160024 | 23 | 211 | 0.0 | 24.1 | 0.00 | 0.00 | 0.00 | 68 | 1011.4 |
| 20260904154522 | 24 | 198 | 3.2 | 25.7 | 0.00 | 0.00 | 0.00 | 66 | 1011.4 |
| 20260904153023 | 25 | 208 | 1.6 | 19.3 | 0.00 | 0.00 | 0.00 | 65 | 1011.2 |
| 20260904151523 | 25 | 207 | 0.0 | 0.0 | 0.00 | 0.00 | 0.00 | 65 | 1011.2 |
| 20260904150028 | 25 | 213 | 1.6 | 25.7 | 0.00 | 0.00 | 0.00 | 64 | 1011.4 |
| 20260904144519 | 25 | 184 | 0.0 | 19.3 | 0.00 | 0.00 | 0.00 | 63 | 1011.3 |
| 20260904143019 | 25 | 188 | 0.0 | 3.2 | 0.00 | 0.00 | 0.00 | 63 | 1011.4 |
| 20260904141518 | 25 | 227 | 1.6 | 17.7 | 0.00 | 0.00 | 0.00 | 63 | 1011.5 |
| 20260904140018 | 25 | 196 | 0.0 | 3.2 | 0.00 | 0.00 | 0.00 | 64 | 1011.6 |
| 20260904134518 | 25 | 196 | 0.0 | 0.0 | 0.00 | 0.00 | 0.00 | 63 | 1011.4 |
| 20260904133019 | 25 | 205 | 0.0 | 1.6 | 0.00 | 0.00 | 0.00 | 63 | 1011.4 |
| 20260904131515 | 25 | 209 | 0.0 | 0.0 | 0.00 | 0.00 | 0.00 | 63 | 1011.3 |
| 20260904130015 | 25 | 212 | 0.0 | 12.9 | 0.00 | 0.00 | 0.00 | 65 | 1011.3 |
| 20260904124514 | 25 | 200 | 0.0 | 16.1 | 0.00 | 0.00 | 0.00 | 64 | 1011.4 |
| 20260904123014 | 25 | 188 | 3.2 | 24.1 | 0.00 | 0.00 | 0.00 | 63 | 1011.5 |
| 20260904121512 | 25 | 187 | 0.0 | 25.7 | 0.00 | 0.00 | 0.00 | 64 | 1011.7 |
| 20260904120013 | 25 | 190 | 0.0 | 20.9 | 0.00 | 0.03 | 0.00 | 63 | 1011.7 |
| 20260904114510 | 26 | 193 | 0.0 | 12.9 | 0.00 | 0.03 | 0.00 | 62 | 1011.6 |
| 20260904113010 | 26 | 205 | 0.0 | 17.7 | 0.00 | 0.03 | 0.00 | 61 | 1011.5 |
| 20260904111506 | 26 | 187 | 0.0 | 0.0 | 0.00 | 0.03 | 0.00 | 63 | 1011.4 |
| 20260904110003 | 25 | 198 | 0.0 | 25.7 | 0.00 | 0.03 | 0.00 | 65 | 1011.8 |
| 20260904104605 | 25 | 214 | 1.6 | 17.7 | 0.00 | 0.03 | 0.00 | 67 | 1011.8 |
| 20260904103101 | 24 | 198 | 0.0 | 14.5 | 0.00 | 0.03 | 0.00 | 69 | 1012.0 |
| 20260904101554 | 24 | 185 | 0.0 | 27.4 | 0.00 | 0.03 | 0.00 | 70 | 1012.0 |
| 20260904100051 | 23 | 186 | 0.0 | 4.8 | 0.00 | 0.20 | 0.00 | 73 | 1012.2 |
| 20260904094650 | 23 | 190 | 3.2 | 16.1 | 0.00 | 0.20 | 0.00 | 74 | 1012.5 |
| 20260904093041 | 22 | 222 | 0.0 | 16.1 | 0.00 | 0.20 | 0.00 | 77 | 1012.6 |
| 20260904091549 | 22 | 187 | 0.0 | 0.0 | 0.00 | 0.20 | 0.00 | 78 | 1012.6 |
| 20260904090034 | 21 | 192 | 0.0 | 0.0 | 0.00 | 0.20 | 0.00 | 79 | 1012.7 |
| 20260904084531 | 21 | 184 | 0.0 | 0.0 | 0.00 | 0.20 | 0.00 | 79 | 1012.7 |
| 20260904083031 | 21 | 183 | 0.0 | 0.0 | 0.00 | 0.20 | 0.00 | 80 | 1012.6 |
| 20260904081527 | 20 | 183 | 0.0 | 0.0 | 0.00 | 0.20 | 0.00 | 79 | 1012.6 |
| 20260904080024 | 20 | 183 | 0.0 | 0.0 | 0.00 | 0.20 | 0.00 | 80 | 1012.8 |
| 20260904074537 | 20 | 183 | 0.0 | 0.0 | 0.00 | 0.20 | 0.00 | 80 | 1013.0 |
| 20260904073021 | 20 | 183 | 0.0 | 0.0 | 0.00 | 0.20 | 0.00 | 80 | 1013.1 |
| 20260904071516 | 20 | 183 | 0.0 | 0.0 | 0.00 | 0.20 | 0.00 | 79 | 1013.4 |
| 20260904070018 | 20 | 183 | 0.0 | 0.0 | 0.00 | 0.20 | 0.00 | 79 | 1013.5 |
| 20260904064515 | 20 | 183 | 0.0 | 0.0 | 0.00 | 0.20 | 0.00 | 79 | 1013.6 |
| 20260904063032 | 20 | 183 | 0.0 | 0.0 | 0.00 | 0.20 | 0.00 | 79 | 1013.8 |
| 20260904061511 | 20 | 183 | 0.0 | 0.0 | 0.00 | 0.20 | 0.00 | 79 | 1014.1 |
| 20260904060010 | 20 | 183 | 0.0 | 0.0 | 0.00 | 0.20 | 0.00 | 79 | 1014.1 |
| 20260904054508 | 20 | 183 | 0.0 | 0.0 | 0.00 | 0.20 | 0.00 | 79 | 1014.3 |
| 20260904053007 | 19 | 185 | 0.0 | 0.0 | 0.00 | 0.20 | 0.00 | 79 | 1014.4 |
| 20260904051504 | 19 | 185 | 0.0 | 0.0 | 0.00 | 0.20 | 0.00 | 78 | 1014.4 |
| 20260904050001 | 19 | 185 | 0.0 | 0.0 | 0.00 | 0.20 | 0.00 | 79 | 1014.3 |
| 20260904044617 | 19 | 185 | 0.0 | 0.0 | 0.00 | 0.20 | 0.00 | 79 | 1014.5 |
| 20260904043104 | 19 | 185 | 0.0 | 0.0 | 0.00 | 0.20 | 0.00 | 79 | 1014.4 |
| 20260904041556 | 19 | 185 | 0.0 | 0.0 | 0.00 | 0.20 | 0.00 | 79 | 1014.7 |
| 20260904040059 | 20 | 214 | 0.0 | 0.0 | 0.00 | 0.20 | 0.00 | 79 | 1014.9 |
| 20260904034554 | 19 | 214 | 0.0 | 0.0 | 0.00 | 0.20 | 0.00 | 79 | 1015.1 |
| 20260904033059 | 19 | 200 | 0.0 | 0.0 | 0.00 | 0.20 | 0.00 | 78 | 1015.0 |
| 20260904031603 | 19 | 209 | 0.0 | 0.0 | 0.00 | 0.20 | 0.00 | 78 | 1015.2 |
| 20260904030050 | 19 | 208 | 0.0 | 0.0 | 0.00 | 0.20 | 0.00 | 78 | 1015.4 |
| 20260904024649 | 19 | 208 | 0.0 | 0.0 | 0.00 | 0.20 | 0.00 | 78 | 1015.4 |
| 20260904023048 | 19 | 208 | 0.0 | 0.0 | 0.00 | 0.20 | 0.00 | 78 | 1015.4 |
| 20260904021550 | 19 | 208 | 0.0 | 0.0 | 0.00 | 0.20 | 0.00 | 78 | 1015.8 |
| 20260904020043 | 19 | 209 | 0.0 | 0.0 | 0.00 | 0.20 | 0.00 | 77 | 1016.0 |
| 20260904014544 | 19 | 188 | 0.0 | 0.0 | 0.00 | 0.20 | 0.00 | 77 | 1016.1 |
| 20260904013041 | 19 | 188 | 0.0 | 0.0 | 0.00 | 0.20 | 0.00 | 77 | 1016.2 |
| 20260904011538 | 19 | 188 | 0.0 | 0.0 | 0.00 | 0.20 | 0.00 | 77 | 1016.3 |
| 20260904010039 | 20 | 188 | 0.0 | 0.0 | 0.00 | 0.20 | 0.00 | 77 | 1016.3 |
| 20260904004534 | 20 | 188 | 0.0 | 0.0 | 0.00 | 0.20 | 0.00 | 77 | 1016.4 |
| 20260904003032 | 20 | 188 | 0.0 | 0.0 | 0.00 | 0.20 | 0.00 | 78 | 1016.6 |
| 20260904001530 | 20 | 188 | 0.0 | 0.0 | 0.00 | 0.20 | 0.00 | 78 | 1016.7 |
| 20260904000029 | 20 | 188 | 0.0 | 0.0 | 0.00 | 0.20 | 0.00 | 79 | 1016.9 |
| 20260903234528 | 20 | 202 | 0.0 | 0.0 | 0.00 | 0.20 | 0.00 | 79 | 1017.0 |
| 20260903233033 | 20 | 202 | 0.0 | 0.0 | 0.00 | 0.20 | 0.00 | 79 | 1017.1 |
| 20260903231526 | 20 | 202 | 0.0 | 0.0 | 0.00 | 0.20 | 0.00 | 79 | 1017.1 |
| 20260903230026 | 20 | 199 | 0.0 | 0.0 | 0.00 | 0.20 | 0.00 | 79 | 1017.2 |
| 20260903224530 | 20 | 199 | 0.0 | 0.0 | 0.00 | 0.20 | 0.00 | 79 | 1017.2 |
| 20260903223022 | 20 | 197 | 0.0 | 0.0 | 0.00 | 0.20 | 0.00 | 79 | 1017.2 |
| 20260903221539 | 20 | 197 | 0.0 | 0.0 | 0.00 | 0.20 | 0.00 | 78 | 1017.5 |
| 20260903220018 | 20 | 197 | 0.0 | 0.0 | 0.00 | 0.20 | 0.20 | 79 | 1017.8 |
| 20260903214518 | 20 | 197 | 0.0 | 0.0 | 0.00 | 0.20 | 0.20 | 79 | 1017.8 |
| 20260903213021 | 20 | 198 | 0.0 | 0.0 | 0.00 | 0.20 | 0.20 | 79 | 1017.9 |
| 20260903211517 | 20 | 198 | 0.0 | 0.0 | 0.00 | 0.20 | 0.20 | 79 | 1017.9 |
| 20260903210017 | 20 | 196 | 0.0 | 0.0 | 0.00 | 0.20 | 0.20 | 79 | 1018.1 |
| 20260903204516 | 20 | 196 | 0.0 | 0.0 | 0.00 | 0.20 | 0.20 | 80 | 1018.0 |
| 20260903203020 | 20 | 196 | 0.0 | 0.0 | 0.00 | 0.20 | 0.20 | 80 | 1018.0 |
| 20260903201515 | 20 | 196 | 0.0 | 0.0 | 0.00 | 0.20 | 0.20 | 80 | 1018.0 |
| 20260903200025 | 20 | 197 | 0.0 | 0.0 | 0.00 | 0.20 | 0.20 | 80 | 1018.0 |
| 20260903194533 | 20 | 197 | 0.0 | 0.0 | 0.00 | 0.20 | 0.20 | 79 | 1017.8 |
| 20260903193018 | 20 | 197 | 0.0 | 0.0 | 0.00 | 0.20 | 0.20 | 79 | 1017.6 |
| 20260903191514 | 20 | 197 | 0.0 | 0.0 | 0.00 | 0.20 | 0.20 | 79 | 1017.9 |
| 20260903190012 | 21 | 197 | 0.0 | 0.0 | 0.00 | 0.20 | 0.20 | 78 | 1017.9 |
| 20260903184511 | 21 | 197 | 0.0 | 0.0 | 0.00 | 0.20 | 0.20 | 78 | 1018.2 |
| 20260903183014 | 21 | 196 | 0.0 | 0.0 | 0.00 | 0.20 | 0.20 | 77 | 1017.9 |
| 20260903181510 | 21 | 188 | 0.0 | 0.0 | 0.00 | 0.20 | 0.20 | 76 | 1017.8 |
| 20260903180124 | 21 | 188 | 0.0 | 0.0 | 0.00 | 0.20 | 0.20 | 76 | 1017.8 |
| 20260903174509 | 22 | 188 | 0.0 | 0.0 | 0.00 | 0.20 | 0.20 | 75 | 1017.7 |
| 20260903173009 | 22 | 213 | 0.0 | 0.0 | 0.00 | 0.20 | 0.20 | 74 | 1017.9 |
| 20260903171508 | 22 | 205 | 0.0 | 0.0 | 0.00 | 0.20 | 0.20 | 73 | 1017.8 |
| 20260903170008 | 22 | 200 | 0.0 | 0.0 | 0.00 | 0.20 | 0.20 | 72 | 1017.6 |
| 20260903164508 | 22 | 198 | 0.0 | 0.0 | 0.00 | 0.20 | 0.20 | 71 | 1017.5 |